AirNav   Everest Fuels
 
 1413 users online  

74S Anacortes Airport
Anacortes, Washington, USA

GOING TO ANACORTES?


FAA INFORMATION EFFECTIVE 02 JANUARY 2020

Location

FAA Identifier: 74S
Lat/Long: 48-29-54.6000N 122-39-45.0000W
48-29.910000N 122-39.750000W
48.4985000,-122.6625000
(estimated)
Elevation: 241 ft. / 73.5 m (surveyed)
Variation: 21E (1985)
From city: 2 miles W of ANACORTES, WA
Time zone: UTC -8 (UTC -7 during Daylight Saving Time)
Zip code: 98221

Airport Operations

Airport use: Open to the public
Activation date: 12/1970
Control tower: no
ARTCC: SEATTLE CENTER
FSS: SEATTLE FLIGHT SERVICE STATION
NOTAMs facility: SEA (NOTAM-D service available)
Attendance: UNATNDD
Wind indicator: yes
Segmented circle: yes
Lights: ACTVT MIRL & REILS RY 18/36 - CTAF.
Beacon: white-green (lighted land airport)
Operates sunset to sunrise.
International operations: customs landing rights airport

Airport Communications

CTAF: 128.25
WX AWOS-3 at BVS (10 nm E): 121.125 (360-757-7767)
WX ASOS at FHR (14 nm W): 135.675 (360-378-8491)
WX AWOS-3 at OKH (15 nm S): 132.775 (360-675-8431)
WX AWOS-3 at ORS (16 nm NW): 135.425 (360-376-6045)
WX ASOS at BLI (18 nm N): PHONE 360-671-8688

Nearby radio navigation aids

VOR radial/distance  VOR name  Freq  Var
CVVr350/15.4PENN COVE VOR/DME117.2019E
HUHr167/27.0WHATCOM VORTAC113.0020E
YYJr096/35.4VICTORIA VOR/DME113.7017E
PAEr316/38.0PAINE VOR/DME110.6020E
YVRr134/39.7VANCOUVER VOR/DME115.9017E

 
NDB name  Hdg/Dist  Freq  Var  ID
SKAGIT/BAY VIEW264/9.924016EBVS -... ...- ...
FRIDAY HARBOR076/14.428417EFHR ..-. .... .-.
EDIZ HOOK037/36.633817ENOW -. --- .--

Airport Services

Fuel available: 100 JET-A
Parking: tiedowns
Airframe service: MAJOR
Powerplant service: MAJOR
Bottled oxygen: NONE
Bulk oxygen: NONE

Runway Information

Runway 18/36

Dimensions: 3015 x 60 ft. / 919 x 18 m
Surface: asphalt/grooved, in good condition
Weight bearing capacity: 
Single wheel: 12.5
Runway edge lights: medium intensity
Gradient: S
RUNWAY 18  RUNWAY 36
Latitude: 48-30.142760N48-29.676647N
Longitude: 122-39.621757W122-39.876798W
Elevation: 233.0 ft.241.0 ft.
Traffic pattern: rightleft
Runway heading: 179 magnetic, 200 true359 magnetic, 020 true
Markings: basic, in fair conditionbasic, in fair condition
Visual slope indicator: 4-light PAPI on right (3.00 degrees glide path)4-light PAPI on left (3.00 degrees glide path)
Runway end identifier lights: yesyes
Obstructions: 22 ft. tree, 767 ft. from runway, 25:1 slope to clear20 ft. trees, 1158 ft. from runway, 46:1 slope to clear

Airport Ownership and Management from official FAA records

Ownership: Publicly-owned
Owner: PORT OF ANACORTES
100 COMMERCIAL AVENUE
ANACORTES, WA 98221
Phone 360-293-3134
Manager: JOHN DUMAS
BOX 297
ANACORTES, WA 98221
Phone 360-293-3134

Airport Operational Statistics

Aircraft based on the field: 50
Single engine airplanes: 48
Jet airplanes: 1
Helicopters: 1
    
Aircraft operations: avg 25/day *
44% transient general aviation
39% local general aviation
17% air taxi
* for 12-month period ending 31 December 2016

Additional Remarks

MILITARY ARRIVAL CORRIDOR N & W OF ARPT.
RWY 36 PREFERRED CALM WIND RY.
NOISE ABATEMENT PROCEDURES IN EFFECT; CTC AMGR 360-293-3134.
NO TOUCH & GO LDGS.
FOR CD CTC WHIDBEY APCH AT 360-257-3310.

Instrument Procedures

There are no published instrument procedures at 74S.

Some nearby airports with instrument procedures:

KNUW - Whidbey Island Naval Air Station (Ault Field) (9 nm S)
KBVS - Skagit Regional Airport (10 nm E)
KFHR - Friday Harbor Airport (14 nm W)
KOKH - AJ Eisenberg Airport (15 nm S)
KORS - Orcas Island Airport (16 nm NW)
KBLI - Bellingham International Airport (18 nm N)
 
Loc | Ops | Rwys | IFR | FBO | Links
Com | Nav | Svcs | Stats | Notes
Area around 74S (Anacortes Airport)
 
Road maps at: MapQuest Bing Google
 
Aerial photo
WARNING: Photo may not be current or correct
Aerial photo of 74S (Anacortes Airport)
Photo by S. Paulay
Photo taken 04-Jul-2007

Do you have a better or more recent aerial photo of Anacortes Airport that you would like to share? If so, please send us your photo.

 
Sectional chart

 
Airport distance calculator
Flying to Anacortes Airport? Find the distance to fly.

From to 74S

Sunrise and sunset
Times for 24-Jan-2020
 Local
(UTC-8)
 Zulu
(UTC)
Morning civil twilight07:1615:16
Sunrise07:5015:50
Sunset16:5500:55
Evening civil twilight17:3001:30

Current date and time
Zulu (UTC)  24-Jan-2020 13:54:14
Local (UTC-8)  24-Jan-2020 05:54:14
 
METAR
KNUW 
9nm S 
241256Z 16013G22KT 10SM SCT007 BKN014 OVC050 12/08 A2982 RMK AO2 SLP098 T01220083
KBVS 
10nm E 
241335Z AUTO 16008G16KT 10SM OVC015 11/09 A2980 RMK A01
KFHR 
15nm W 
241328Z AUTO 00000KT 10SM FEW010 SCT029 SCT100 08/08 A2978 RMK AO2 RAE21 P0006 T00830078
KORS 
15nm NW 
241335Z AUTO 16006KT 4SM -RA BKN006 BKN023 OVC055 10/10 A2977 RMK AO2
KBLI 
19nm N 
241253Z AUTO 17011G20KT 10SM OVC018 11/08 A2977 RMK AO2 SLP086 T01060078
TAF
KNUW 
9nm S 
2412/2507 15010KT 9000 BR VCSH FEW008 BKN015 OVC080 640609 540606 QNH2976INS TEMPO 2412/2418 15014G24KT 9000 -SHRA BKN008 OVC015 FM241800 15018G28KT 9999 VCSH SCT020 BKN080 OVC160 640807 520008 540804 QNH2984INS TEMPO 2418/2500 15012G18KT 8000 -SHRA BKN020 OVC080 FM250000 14010KT 9999 VCSH SCT020 BKN080 BKN160 OVC220 640806 500000 QNH2990INS FM250600 14012KT 9999 VCSH FEW008 BKN020 OVC080 640509 QNH2997INS T07/2413Z T14/2423Z AMD 1211 FS30020
KBLI 
19nm N 
241130Z 2412/2512 18012G25KT P6SM -SHRA OVC020 FM242200 17012KT P6SM -SHRA SCT025 OVC050 FM250900 14009KT P6SM OVC015
NOTAMs
Click for the latest NOTAMs
NOTAMs are issued by the DoD/FAA and will open in a separate window not controlled by AirNav.

 

 
 

FBO, Fuel Providers, and Aircraft Ground Support

  
 Business Name 
 
 Contact 
 
 Services / Description 
 
Fuel Prices
 
Comments
  
 Port of Anacortes
360-293-3134
[web site]
[email]
Airport management, Aviation fuel, Aircraft parking (ramp or tiedown), Aerial tours / aerial sightseeing, Aircraft charters, Scheduled airline carrier

More info about Port of Anacortes
Phillips 66
100LL Jet A
SS $5.27 $3.62 
 Updated 21-Jan-2020
 
   write
SS=Self service
Update Fuel Prices
 

Would you like to see your business listed on this page?

 If your business provides an interesting product or service to pilots, flight crews, aircraft, or users of the Anacortes Airport, you should consider listing it here.  To start the listing process, click on the button below
 
Add a business
 

Other Pages about Anacortes Airport

www.portofanacortes.com/airport
 
Update a link
 
Copyright © AirNav, LLC. All rights reserved. Privacy Policy  Contact